This is the latest recevied weather packets stored in our database for station/object OK1FET-5. If no packets are shown the sender has not sent any weather packets the latest 1 day(s).
| Time | Temp. | Humidity | Pressure | Rain* | Wind** | Luminosity | Snow |
|---|---|---|---|---|---|---|---|
| 1777952925 | 13.89° C | 55% | 1009.6 hPa | - | 0.45 m/s, 122° | - | - |
| 1777952631 | 13.89° C | 55% | 1009.5 hPa | - | 0.45 m/s, 76° | - | - |
| 1777952336 | 13.89° C | 55% | 1009.6 hPa | - | 0.45 m/s, 187° | - | - |
| 1777952042 | 13.89° C | 54% | 1009.6 hPa | - | 0 m/s | - | - |
| 1777951748 | 14.44° C | 53% | 1009.7 hPa | - | 0 m/s | - | - |
| 1777951453 | 14.44° C | 53% | 1009.7 hPa | - | 0.45 m/s, 195° | - | - |
| 1777951159 | 15° C | 53% | 1009.6 hPa | - | 0.45 m/s, 18° | - | - |
| 1777950864 | 15° C | 53% | 1009.6 hPa | - | 0.89 m/s, 349° | - | - |
| 1777950570 | 15° C | 53% | 1009.5 hPa | - | 0.89 m/s, 351° | - | - |
| 1777950276 | 15° C | 53% | 1009.6 hPa | - | 0.89 m/s, 0° | - | - |
| 1777949981 | 15° C | 53% | 1009.6 hPa | - | 0.89 m/s, 345° | - | - |
| 1777949696 | 15° C | 53% | 1009.6 hPa | - | 0.89 m/s, 2° | - | - |
| 1777949392 | 15° C | 54% | 1009.6 hPa | - | 1.79 m/s, 333° | - | - |
| 1777949098 | 14.44° C | 55% | 1009.6 hPa | - | 2.24 m/s, 336° | - | - |
| 1777948804 | 14.44° C | 56% | 1009.7 hPa | - | 1.79 m/s, 336° | - | - |
| 1777948803 | 14.44° C | 56% | 1009.7 hPa | - | 1.79 m/s, 336° | - | - |
| 1777948509 | 14.44° C | 55% | 1009.7 hPa | - | 1.79 m/s, 344° | - | - |
| 1777948215 | 13.89° C | 55% | 1009.8 hPa | - | 2.24 m/s, 333° | - | - |
| 1777947921 | 14.44° C | 53% | 1009.8 hPa | - | 2.24 m/s, 327° | - | - |
| 1777947629 | 14.44° C | 53% | 1009.9 hPa | - | 2.24 m/s, 341° | - | - |
| 1777947332 | 15° C | 52% | 1009.9 hPa | - | 2.24 m/s, 336° | - | - |
| 1777947038 | 15.56° C | 52% | 1009.9 hPa | - | 1.79 m/s, 331° | - | - |
| 1777946743 | 15.56° C | 52% | 1010 hPa | - | 1.34 m/s, 334° | - | - |
| 1777946448 | 15.56° C | 51% | 1010 hPa | - | 1.34 m/s, 338° | - | - |
| 1777946154 | 16.11° C | 51% | 1010 hPa | - | 1.34 m/s, 334° | - | - |
* Rain since midnight (hover to see other rain measurements)
** Current wind speed in m/s (hover to see current wind gust speed)